TimeCST,TemperatureF,Dew PointF,Humidity,Sea Level PressureIn,VisibilityMPH,Wind Direction,Wind SpeedMPH,Gust SpeedMPH,PrecipitationIn,Events,Conditions,WindDirDegrees,DateUTC
12:55 AM,29.5,17.4,61,30.43,10.0,SSE,5.8,-,N/A,,Clear,150,2012-11-24 06:55:00
1:55 AM,30.6,16.0,55,30.42,10.0,Calm,Calm,-,N/A,,Clear,0,2012-11-24 07:55:00
2:55 AM,28.8,17.1,62,30.41,10.0,SE,3.5,-,N/A,,Clear,140,2012-11-24 08:55:00
3:55 AM,28.4,16.9,62,30.40,10.0,SE,4.6,-,N/A,,Clear,140,2012-11-24 09:55:00
4:55 AM,26.6,17.1,67,30.38,10.0,SE,5.8,-,N/A,,Clear,140,2012-11-24 10:55:00
5:55 AM,25.0,17.8,74,30.38,10.0,South,9.2,-,N/A,,Clear,170,2012-11-24 11:55:00
6:55 AM,25.5,18.7,75,30.36,10.0,South,9.2,-,N/A,,Clear,170,2012-11-24 12:55:00
7:55 AM,27.1,19.9,74,30.35,10.0,SSE,8.1,-,N/A,,Clear,160,2012-11-24 13:55:00
8:55 AM,32.4,19.6,59,30.34,10.0,South,13.8,-,N/A,,Clear,170,2012-11-24 14:55:00
9:55 AM,36.5,18.7,49,30.30,10.0,South,17.3,-,N/A,,Clear,170,2012-11-24 15:55:00
10:55 AM,41.5,18.9,40,30.26,10.0,SSE,19.6,-,N/A,,Clear,160,2012-11-24 16:55:00
11:55 AM,45.7,19.2,35,30.19,10.0,South,23.0,29.9,N/A,,Clear,170,2012-11-24 17:55:00
12:55 PM,48.2,20.7,34,30.13,10.0,South,23.0,-,N/A,,Partly Cloudy,180,2012-11-24 18:55:00
1:55 PM,51.4,20.8,30,30.08,10.0,South,21.9,28.8,N/A,,Clear,180,2012-11-24 19:55:00
2:55 PM,54.7,21.0,27,30.03,10.0,South,25.3,31.1,N/A,,Clear,190,2012-11-24 20:55:00
3:55 PM,57.4,21.7,25,30.01,10.0,South,18.4,25.3,N/A,,Clear,180,2012-11-24 21:55:00
4:55 PM,55.2,20.1,25,30.00,10.0,South,15.0,-,N/A,,Clear,180,2012-11-24 22:55:00
5:55 PM,51.1,20.1,30,29.99,10.0,South,16.1,-,N/A,,Clear,170,2012-11-24 23:55:00
6:55 PM,50.0,19.9,31,29.98,10.0,South,18.4,-,N/A,,Clear,170,2012-11-25 00:55:00
7:55 PM,49.5,19.9,31,29.96,10.0,South,20.7,-,N/A,,Clear,170,2012-11-25 01:55:00
8:55 PM,48.2,20.3,33,29.96,10.0,South,17.3,-,N/A,,Clear,180,2012-11-25 02:55:00
9:55 PM,47.5,20.5,34,29.95,10.0,South,16.1,-,N/A,,Clear,180,2012-11-25 03:55:00
10:55 PM,46.8,20.3,35,29.94,10.0,South,15.0,-,N/A,,Clear,180,2012-11-25 04:55:00
11:55 PM,43.7,21.0,41,29.94,10.0,South,13.8,-,N/A,,Clear,180,2012-11-25 05:55:00